This demonstration page uses our WeatherBlox Daily Observations layout. Learn more.

Left ArrowRight Arrow

Hourly Observations for January 11, 2017

Temp ( °F °C ) Dew Point ( °F °C ) Humidity (%) Winds ( mph kmh ) Pressure ( in mb ) Visibility ( mi km ) Precip ( " mm )
12:52 am 00:52 Clear 39 3.9 31 -0.6 73 73 SSE 10 17 29.95 1014 10 16 0.00 0.00
1:52 am 01:52 Clear 41 5 31 -0.6 67 67 SSE 13 20 29.92 1013 10 16 0.00 0.00
2:52 am 02:52 Clear 44 6.7 32 0 63 63 SSE 17 28 29.89 1012 10 16 0.00 0.00
3:52 am 03:52 Clear 47 8.3 31 -0.6 54 54 SSE 17 28 29.87 1012 10 16 0.00 0.00
4:52 am 04:52 Clear 48 8.9 32 0 54 54 SSE 20 31 29.84 1010 10 16 0.00 0.00
5:52 am 05:52 Clear 49 9.4 32 0 52 52 SSE 17 28 29.81 1010 10 16 0.00 0.00
6:52 am 06:52 Clear 50 10 34 1.1 54 54 SSE 18 30 29.81 1010 10 16 0.00 0.00
7:52 am 07:52 Sunny 51 10.6 40 4.4 66 66 SSE 17 28 29.80 1009 10 16 0.00 0.00
8:52 am 08:52 Sunny 53 11.7 44 6.7 72 72 SSE 17 28 29.79 1009 10 16 0.00 0.00
9:52 am 09:52 Sunny 59 15 50 10 72 72 S 20 31 29.76 1008 10 16 0.00 0.00
10:52 am 10:52 Sunny 64 17.8 53 11.7 68 68 S 24 39 29.72 1007 10 16 0.00 0.00
11:40 am 11:40 Cloudy 66 19 55 13 68 68 S 29 46 29.65 1004 10 16 0.00 0.00
11:52 am 11:52 Cloudy 67 19.4 55 12.8 66 66 S 30 48 29.66 1005 10 16 0.00 0.00
12:52 pm 12:52 Partly Cloudy 71 21.7 54 12.2 55 55 SSW 33 54 29.62 1003 10 16 0.00 0.00
1:52 pm 13:52 Sunny 73 22.8 51 10.6 46 46 SSW 23 37 29.60 1002 10 16 0.00 0.00
2:52 pm 14:52 Sunny 73 22.8 50 10 44 44 SSW 31 50 29.61 1003 10 16 0.00 0.00
3:52 pm 15:52 Sunny 73 22.8 50 10 44 44 SW 23 37 29.63 1004 10 16 0.00 0.00
4:52 pm 16:52 Sunny 70 21.1 51 10.6 51 51 SSW 21 33 29.63 1004 10 16 0.00 0.00
5:52 pm 17:52 Clear 67 19.4 52 11.1 59 59 SSW 15 24 29.67 1005 10 16 0.00 0.00
6:52 pm 18:52 Mostly Cloudy 66 18.9 53 11.7 63 63 S 12 19 29.70 1006 10 16 0.00 0.00
7:52 pm 19:52 Partly Cloudy 66 18.9 54 12.2 65 65 SSW 16 26 29.72 1007 10 16 0.00 0.00
8:52 pm 20:52 Clear 63 17.2 53 11.7 70 70 S 10 17 29.73 1007 10 16 0.00 0.00
9:52 pm 21:52 Clear 62 16.7 53 11.7 73 73 S 12 19 29.73 1007 10 16 0.00 0.00
10:52 pm 22:52 Partly Cloudy 62 16.7 54 12.2 75 75 WSW 6 9 29.74 1007 10 16 0.00 0.00
11:52 pm 23:52 Cloudy 64 17.8 55 12.8 73 73 SSW 7 11 29.75 1007 10 16 0.00 0.00

Powered by AerisWeather